[[{"header":{"parameterUnit":"m.s-1","parameterCategory":2,"la1":30.2992,"la2":30.254,"lo1":-89.0895,"lo2":-89.0443,"dy":0.0025,"dx":0.0025,"nx":19,"ny":19,"refTime":"2026-05-07T21:00:00:Z","depth":"0","parameterNumber":2,"parameterNumberName":"U-component_of_CURRENTS"},"data":[0,0,0,-0.2588,-0.2588,-0.2595,-0.2595,-0.253,-0.2529,0,0,0,0,0,0,0,0,0,0,0,-0.2574,-0.2574,-0.2588,-0.2588,-0.2595,-0.2595,-0.253,-0.2529,0,0,0,0,0,0,0,0,0,0,0,-0.2574,-0.2574,-0.2574,-0.2588,-0.2595,-0.2595,-0.253,-0.254,0,0,0,0,0,0,0,0,0,0,-0.2541,-0.2537,-0.2574,-0.2574,-0.2589,-0.2595,-0.2595,-0.2541,-0.2539,-0.251,0,-0.2516,0,-0.2531,-0.2525,-0.2524,0,0,0,-0.2574,-0.2539,-0.2552,-0.2574,-0.2589,-0.2595,-0.2588,-0.254,-0.2538,-0.2508,-0.2515,-0.2513,-0.2529,-0.2524,-0.2524,-0.243,-0.2429,0,0,-0.2573,-0.2561,-0.2554,-0.2551,-0.2594,-0.2588,-0.2588,-0.254,-0.253,-0.2515,-0.2512,-0.2528,-0.2524,-0.2523,-0.243,-0.243,0,0,0,-0.2582,-0.256,-0.2576,-0.2553,-0.2566,-0.2588,-0.2589,-0.2532,-0.2541,-0.2512,-0.2528,-0.2523,-0.2523,-0.2431,-0.243,-0.2454,0,0,0,-0.2581,-0.2567,-0.2576,-0.2567,-0.2568,-0.2558,-0.2582,-0.2544,-0.254,-0.2528,-0.2523,-0.2522,-0.2432,-0.2431,-0.2454,-0.2462,0,0,0,-0.2573,-0.2566,-0.2571,-0.2566,-0.2579,-0.256,-0.2565,-0.2544,-0.255,-0.2524,-0.2522,-0.2432,-0.2431,-0.2455,-0.2463,-0.246,0,0,0,-0.2554,-0.2564,-0.2571,-0.2582,-0.2579,-0.2581,-0.2566,-0.2565,-0.2548,-0.2523,-0.2431,-0.243,-0.2455,-0.2463,-0.2461,-0.2331,-0.2319,0,0,-0.2561,-0.2564,-0.2573,-0.258,-0.2583,-0.2579,-0.256,-0.2541,-0.2512,-0.2441,-0.2439,-0.2454,-0.2463,-0.246,-0.2262,-0.2252,0,0,0,-0.2572,-0.2566,-0.2571,-0.2572,-0.2581,-0.2562,-0.2547,-0.2526,-0.2475,-0.2499,-0.2423,-0.2427,-0.2425,-0.2346,-0.2338,-0.2258,-0.2425,-0.2425,-0.2425,-0.2531,-0.2548,-0.2538,-0.2546,-0.255,-0.2543,-0.2525,-0.2481,-0.2465,-0.244,-0.2423,-0.2405,-0.2318,-0.2311,-0.2231,-0.2397,-0.2397,-0.2397,-0.2397,-0.2492,-0.2465,-0.2493,-0.249,-0.2494,-0.2478,-0.2468,-0.2464,-0.2419,-0.2405,-0.2403,-0.2345,-0.2304,-0.2221,-0.2398,-0.2398,-0.2398,-0.2398,-0.2398,-0.2416,-0.2402,-0.2419,-0.2414,-0.2417,-0.2437,-0.2429,-0.2435,-0.2423,-0.2425,-0.2328,-0.2325,-0.2273,-0.2424,-0.2424,-0.2424,-0.2424,-0.2424,-0.2424,-0.2312,-0.233,-0.2308,-0.2335,-0.2334,-0.236,-0.2403,-0.2402,-0.2365,-0.2329,-0.2327,-0.223,-0.2413,-0.2436,-0.2424,-0.2424,-0.2424,-0.2424,-0.2424,-0.2162,-0.2207,-0.2166,-0.2166,-0.2192,-0.216,-0.2272,-0.2242,-0.2265,-0.2214,-0.2097,-0.2269,-0.2248,-0.2252,-0.2269,-0.2216,-0.2216,-0.2216,-0.2216,-0.2053,-0.2079,-0.2008,-0.199,-0.2003,-0.205,-0.1958,-0.1969,-0.1952,-0.1899,-0.1969,-0.1921,-0.1933,-0.1893,-0.1905,-0.1914,-0.1773,-0.1772,-0.1772,-0.1927,-0.1943,-0.1844,-0.1874,-0.189,-0.1891,-0.1735,-0.1656,-0.1682,-0.1753,-0.1888,-0.1906,-0.1839,-0.1864,-0.1806,-0.1828,-0.1846,0,0]},{"header":{"parameterUnit":"m.s-1","parameterCategory":2,"la1":30.2992,"la2":30.254,"lo1":-89.0895,"lo2":-89.0443,"dy":0.0025,"dx":0.0025,"nx":19,"ny":19,"refTime":"2026-05-07T21:00:00:Z","depth":"0","parameterNumber":3,"parameterNumberName":"V-component_of_CURRENTS"},"data":[0,0,0,-0.0596,-0.0595,-0.0521,-0.0521,-0.0345,-0.0344,0,0,0,0,0,0,0,0,0,0,0,-0.0616,-0.0616,-0.0596,-0.0595,-0.0521,-0.0521,-0.0346,-0.0344,0,0,0,0,0,0,0,0,0,0,0,-0.0616,-0.0616,-0.0615,-0.0595,-0.0522,-0.0521,-0.0346,-0.0417,0,0,0,0,0,0,0,0,0,0,-0.0496,-0.0535,-0.0616,-0.0615,-0.0595,-0.0522,-0.0521,-0.0421,-0.0412,-0.0362,0,-0.0362,0,-0.0358,-0.0332,-0.0331,0,0,0,-0.0574,-0.0543,-0.0526,-0.0615,-0.0594,-0.0522,-0.0549,-0.0416,-0.0407,-0.0351,-0.036,-0.0354,-0.0355,-0.0331,-0.033,-0.0193,-0.0193,0,0,-0.0578,-0.0592,-0.0533,-0.0521,-0.0587,-0.0551,-0.0547,-0.0411,-0.0402,-0.0359,-0.035,-0.0352,-0.033,-0.0328,-0.0194,-0.0193,0,0,0,-0.0604,-0.0595,-0.0583,-0.0527,-0.0525,-0.055,-0.0544,-0.0408,-0.0405,-0.0348,-0.035,-0.0329,-0.0327,-0.0194,-0.0193,-0.0288,0,0,0,-0.0605,-0.0612,-0.0585,-0.0591,-0.0529,-0.0478,-0.0544,-0.0415,-0.04,-0.0351,-0.0329,-0.0325,-0.0194,-0.0194,-0.0286,-0.033,0,0,0,-0.0617,-0.0613,-0.061,-0.0592,-0.0571,-0.0481,-0.0469,-0.0411,-0.0401,-0.0331,-0.0324,-0.0194,-0.0194,-0.0284,-0.0326,-0.0302,0,0,0,-0.0626,-0.063,-0.061,-0.0609,-0.0572,-0.0529,-0.047,-0.0419,-0.0364,-0.0328,-0.0194,-0.0194,-0.0283,-0.0324,-0.0301,-0.0199,-0.0198,0,0,-0.0639,-0.0632,-0.0631,-0.0612,-0.0599,-0.0537,-0.0504,-0.0409,-0.0336,-0.0229,-0.0226,-0.0286,-0.0326,-0.0302,-0.0172,-0.0172,0,0,0,-0.064,-0.0647,-0.0635,-0.0625,-0.0581,-0.0552,-0.0462,-0.0416,-0.0329,-0.0306,-0.025,-0.0271,-0.0254,-0.0187,-0.0187,-0.0005,-0.0191,-0.0191,-0.0191,-0.0682,-0.0667,-0.0675,-0.0654,-0.0623,-0.0547,-0.0507,-0.0423,-0.0349,-0.0326,-0.0322,-0.0333,-0.0263,-0.0262,-0.0076,-0.0288,-0.0288,-0.0288,-0.0288,-0.0733,-0.075,-0.0726,-0.0732,-0.0689,-0.0653,-0.0551,-0.05,-0.0409,-0.0367,-0.0344,-0.0258,-0.0267,-0.0069,-0.0294,-0.0293,-0.0292,-0.0292,-0.0291,-0.0781,-0.0791,-0.0792,-0.0808,-0.0797,-0.0732,-0.0691,-0.0608,-0.0492,-0.0475,-0.0332,-0.0328,-0.0173,-0.0442,-0.0443,-0.0443,-0.0443,-0.0443,-0.0443,-0.0835,-0.0838,-0.0879,-0.0889,-0.09,-0.0881,-0.0774,-0.0691,-0.0522,-0.0412,-0.041,-0.0135,-0.0378,-0.0394,-0.0445,-0.0444,-0.0444,-0.0444,-0.0444,-0.0894,-0.0903,-0.0967,-0.0993,-0.1018,-0.0971,-0.088,-0.0633,-0.0529,-0.0407,-0.008,-0.0347,-0.0295,-0.0292,-0.0303,-0.0327,-0.0327,-0.0327,-0.0327,-0.094,-0.0949,-0.1039,-0.1089,-0.111,-0.1018,-0.0814,-0.055,-0.0168,0.0039,0.0069,0.014,0.0127,0.0208,0.02,0.0201,0.0306,0.0307,0.0307,-0.0983,-0.1009,-0.1074,-0.1124,-0.1144,-0.1026,-0.0765,-0.0384,0.0146,0.0348,0.0299,0.0273,0.0389,0.0354,0.0491,0.0465,0.0469,0,0]}],[{"header":{"parameterUnit":"m.s-1","parameterCategory":2,"la1":30.2992,"la2":30.254,"lo1":-89.0895,"lo2":-89.0443,"dy":0.0025,"dx":0.0025,"nx":19,"ny":19,"refTime":"2026-05-07T21:00:00:Z","depth":"2","parameterNumber":2,"parameterNumberName":"U-component_of_CURRENTS"},"data":[0,0,0,-0.2267,-0.2268,-0.2284,-0.2284,-0.2243,-0.2243,0,0,0,0,0,0,0,0,0,0,0,-0.2254,-0.2255,-0.2267,-0.2268,-0.2284,-0.2284,-0.2243,-0.2243,0,0,0,0,0,0,0,0,0,0,0,-0.2254,-0.2254,-0.2255,-0.2268,-0.2284,-0.2284,-0.2243,-0.2244,0,0,0,0,0,0,0,0,0,0,-0.2235,-0.2232,-0.2254,-0.2255,-0.2268,-0.2284,-0.2284,-0.2245,-0.2244,-0.2221,0,-0.2227,0,-0.224,-0.224,-0.2239,0,0,0,-0.2259,-0.2233,-0.2244,-0.2255,-0.2268,-0.2284,-0.2274,-0.2245,-0.2244,-0.222,-0.2227,-0.2226,-0.2239,-0.2239,-0.2239,-0.2169,-0.2168,0,0,-0.2258,-0.2248,-0.2244,-0.2243,-0.2275,-0.2274,-0.2275,-0.2245,-0.224,-0.2227,-0.2225,-0.2238,-0.2239,-0.2239,-0.2169,-0.2168,0,0,0,-0.2261,-0.2248,-0.226,-0.2244,-0.2255,-0.2274,-0.2276,-0.2241,-0.2247,-0.2225,-0.2238,-0.2239,-0.2238,-0.2169,-0.2169,-0.2197,0,0,0,-0.226,-0.2251,-0.226,-0.2253,-0.2257,-0.2256,-0.2272,-0.2249,-0.2247,-0.2238,-0.2239,-0.2238,-0.217,-0.2169,-0.2197,-0.221,0,0,0,-0.2253,-0.225,-0.2255,-0.2253,-0.2266,-0.2258,-0.2262,-0.2249,-0.2254,-0.2239,-0.2237,-0.217,-0.2169,-0.2198,-0.2209,-0.2207,0,0,0,-0.2239,-0.2246,-0.2254,-0.2263,-0.2266,-0.2271,-0.2262,-0.2268,-0.2259,-0.2238,-0.217,-0.2169,-0.2198,-0.2209,-0.2207,-0.2068,-0.2057,0,0,-0.2241,-0.2245,-0.2252,-0.226,-0.2267,-0.2268,-0.226,-0.2254,-0.223,-0.2175,-0.2174,-0.2197,-0.2209,-0.2207,-0.2013,-0.2003,0,0,0,-0.2249,-0.2245,-0.225,-0.2256,-0.2266,-0.2263,-0.2257,-0.2243,-0.2209,-0.2222,-0.2169,-0.2175,-0.2174,-0.2089,-0.2081,-0.2164,-0.2164,-0.2164,-0.2164,-0.2217,-0.2232,-0.2229,-0.2241,-0.2248,-0.2255,-0.2247,-0.2217,-0.2203,-0.2187,-0.2178,-0.2167,-0.2075,-0.2068,-0.2154,-0.2154,-0.2154,-0.2154,-0.2154,-0.2188,-0.2169,-0.2201,-0.2203,-0.222,-0.2216,-0.2216,-0.2215,-0.2184,-0.2171,-0.2167,-0.2097,-0.2061,-0.2156,-0.2156,-0.2155,-0.2155,-0.2155,-0.2155,-0.2128,-0.2119,-0.214,-0.215,-0.2168,-0.2193,-0.2194,-0.2207,-0.2196,-0.2199,-0.2092,-0.2089,-0.2198,-0.2196,-0.2196,-0.2196,-0.2196,-0.2196,-0.2196,-0.2043,-0.2065,-0.2057,-0.2093,-0.2101,-0.2134,-0.218,-0.2178,-0.2138,-0.21,-0.2098,-0.2181,-0.2179,-0.2199,-0.2197,-0.2197,-0.2197,-0.2197,-0.2197,-0.1921,-0.1963,-0.1939,-0.1948,-0.1983,-0.1948,-0.2057,-0.2015,-0.2035,-0.1978,-0.2032,-0.2036,-0.2012,-0.2015,-0.2029,-0.1983,-0.1983,-0.1983,-0.1983,-0.1831,-0.1857,-0.1807,-0.1799,-0.1813,-0.1846,-0.1734,-0.1714,-0.1759,-0.1745,-0.1756,-0.1708,-0.1721,-0.1679,-0.169,-0.1697,-0.1565,-0.1565,-0.1564,-0.1732,-0.1745,-0.1668,-0.1697,-0.1711,-0.1688,-0.1504,-0.1351,-0.1377,-0.155,-0.1711,-0.195,-0.1905,-0.1916,-0.1874,-0.1883,-0.1903,0,0]},{"header":{"parameterUnit":"m.s-1","parameterCategory":2,"la1":30.2992,"la2":30.254,"lo1":-89.0895,"lo2":-89.0443,"dy":0.0025,"dx":0.0025,"nx":19,"ny":19,"refTime":"2026-05-07T21:00:00:Z","depth":"2","parameterNumber":3,"parameterNumberName":"V-component_of_CURRENTS"},"data":[0,0,0,-0.0586,-0.0585,-0.0528,-0.0527,-0.0382,-0.0381,0,0,0,0,0,0,0,0,0,0,0,-0.06,-0.06,-0.0586,-0.0585,-0.0528,-0.0527,-0.0383,-0.0381,0,0,0,0,0,0,0,0,0,0,0,-0.06,-0.06,-0.06,-0.0585,-0.0528,-0.0527,-0.0383,-0.044,0,0,0,0,0,0,0,0,0,0,-0.0502,-0.0534,-0.06,-0.06,-0.0585,-0.0528,-0.0527,-0.0443,-0.0436,-0.0394,0,-0.0395,0,-0.0393,-0.0372,-0.0371,0,0,0,-0.0566,-0.054,-0.0528,-0.06,-0.0585,-0.0528,-0.0548,-0.0439,-0.0432,-0.0385,-0.0393,-0.0388,-0.0391,-0.0371,-0.037,-0.0244,-0.0244,0,0,-0.057,-0.0581,-0.0533,-0.0523,-0.0581,-0.055,-0.0547,-0.0435,-0.0428,-0.0393,-0.0385,-0.0389,-0.037,-0.0369,-0.0245,-0.0244,0,0,0,-0.0591,-0.0584,-0.0574,-0.0528,-0.0529,-0.0549,-0.0545,-0.0433,-0.0431,-0.0384,-0.0387,-0.0369,-0.0367,-0.0245,-0.0244,-0.0314,0,0,0,-0.0592,-0.0598,-0.0576,-0.0581,-0.0532,-0.0491,-0.0545,-0.0439,-0.0427,-0.0388,-0.0369,-0.0366,-0.0245,-0.0245,-0.0313,-0.0346,0,0,0,-0.0601,-0.0598,-0.0596,-0.0582,-0.0567,-0.0493,-0.0484,-0.0436,-0.0429,-0.0371,-0.0365,-0.0245,-0.0245,-0.0312,-0.0343,-0.0316,0,0,0,-0.0608,-0.0619,-0.0597,-0.0605,-0.0568,-0.0537,-0.0485,-0.0448,-0.0404,-0.0368,-0.0245,-0.0245,-0.0312,-0.0342,-0.0315,-0.0249,-0.0247,0,0,-0.063,-0.0622,-0.0627,-0.0606,-0.06,-0.0543,-0.0511,-0.0435,-0.0374,-0.0274,-0.0271,-0.0313,-0.0343,-0.0315,-0.0207,-0.0207,0,0,0,-0.0639,-0.0645,-0.0637,-0.0628,-0.0593,-0.0554,-0.0481,-0.0435,-0.0351,-0.0348,-0.0279,-0.0294,-0.0275,-0.0233,-0.0232,-0.0241,-0.0241,-0.0241,-0.0241,-0.0681,-0.0667,-0.0675,-0.0651,-0.0624,-0.055,-0.0504,-0.0419,-0.0364,-0.0335,-0.0326,-0.0319,-0.0274,-0.0273,-0.0294,-0.0294,-0.0295,-0.0295,-0.0295,-0.0727,-0.0738,-0.0709,-0.0715,-0.0663,-0.0626,-0.0518,-0.0471,-0.0375,-0.0346,-0.0324,-0.0277,-0.0276,-0.03,-0.0299,-0.0298,-0.0298,-0.0297,-0.0297,-0.0764,-0.077,-0.0769,-0.0774,-0.0749,-0.0682,-0.063,-0.0544,-0.0436,-0.0415,-0.0314,-0.0312,-0.0363,-0.039,-0.039,-0.039,-0.039,-0.039,-0.039,-0.0808,-0.0806,-0.084,-0.0837,-0.0842,-0.0812,-0.0699,-0.0619,-0.0466,-0.0371,-0.0369,-0.035,-0.0347,-0.0365,-0.0391,-0.0391,-0.0391,-0.0391,-0.0391,-0.0857,-0.0865,-0.0917,-0.0937,-0.0945,-0.0903,-0.0802,-0.0586,-0.0483,-0.0379,-0.0319,-0.032,-0.0281,-0.028,-0.0294,-0.0299,-0.0299,-0.0299,-0.0299,-0.0897,-0.0903,-0.0981,-0.1022,-0.1033,-0.0949,-0.0784,-0.0549,-0.0341,-0.0242,-0.0245,-0.0225,-0.0229,-0.0186,-0.0186,-0.0198,-0.0179,-0.0179,-0.0179,-0.0932,-0.0956,-0.1015,-0.1057,-0.1071,-0.0971,-0.077,-0.0452,-0.018,-0.0177,-0.026,-0.0284,-0.0261,-0.0265,-0.0201,-0.0202,-0.0221,0,0]}],[{"header":{"parameterUnit":"m.s-1","parameterCategory":2,"la1":30.2992,"la2":30.254,"lo1":-89.0895,"lo2":-89.0443,"dy":0.0025,"dx":0.0025,"nx":19,"ny":19,"refTime":"2026-05-07T21:00:00:Z","depth":"4","parameterNumber":2,"parameterNumberName":"U-component_of_CURRENTS"},"data":[0,0,0,-0.165,-0.1653,-0.1755,-0.1756,-0.1806,-0.1806,0,0,0,0,0,0,0,0,0,0,0,-0.162,-0.1621,-0.165,-0.1653,-0.1755,-0.1756,-0.1806,-0.1806,0,0,0,0,0,0,0,0,0,0,0,-0.162,-0.1621,-0.1622,-0.1653,-0.1755,-0.1756,-0.1806,-0.1749,0,0,0,0,0,0,0,0,0,0,-0.1659,-0.1648,-0.162,-0.1622,-0.1654,-0.1755,-0.1756,-0.1747,-0.1752,-0.1736,0,-0.176,0,-0.178,-0.1807,-0.1807,0,0,0,-0.1654,-0.1644,-0.1665,-0.1622,-0.1655,-0.1755,-0.1709,-0.1751,-0.1757,-0.1742,-0.1761,-0.1764,-0.1781,-0.1808,-0.1808,-0.1811,-0.1811,0,0,-0.1649,-0.1642,-0.1661,-0.1669,-0.1691,-0.1706,-0.1713,-0.1755,-0.1767,-0.1761,-0.1765,-0.1781,-0.1808,-0.1808,-0.1811,-0.1811,0,0,0,-0.1631,-0.1638,-0.166,-0.1666,-0.1689,-0.1709,-0.1716,-0.1766,-0.1772,-0.1766,-0.1782,-0.1808,-0.1808,-0.1812,-0.1811,-0.1849,0,0,0,-0.1628,-0.1628,-0.1658,-0.1655,-0.1689,-0.1741,-0.1726,-0.1769,-0.1774,-0.1782,-0.1808,-0.1808,-0.1812,-0.1811,-0.1848,-0.186,0,0,0,-0.1614,-0.1626,-0.164,-0.1654,-0.1697,-0.1741,-0.1751,-0.1771,-0.1783,-0.1807,-0.1808,-0.1812,-0.1811,-0.1848,-0.1858,-0.1857,0,0,0,-0.16,-0.1616,-0.164,-0.1665,-0.1696,-0.1738,-0.1751,-0.1798,-0.1822,-0.1808,-0.1812,-0.1811,-0.1847,-0.1858,-0.1857,-0.1637,0,0,0,-0.1604,-0.1617,-0.1628,-0.1652,-0.1689,-0.1724,-0.1763,-0.1809,-0.1806,-0.1792,-0.1794,-0.1848,-0.1858,-0.1857,-0.1622,0,0,0,0,-0.1618,-0.1628,-0.1643,-0.1678,-0.1713,-0.1761,-0.1801,-0.181,-0.1832,-0.1818,-0.1832,-0.1837,-0.1835,-0.1704,-0.181,-0.181,-0.181,-0.181,-0.181,-0.1602,-0.1626,-0.1652,-0.1691,-0.1727,-0.1789,-0.1818,-0.1833,-0.1835,-0.1846,-0.1856,-0.1864,-0.1725,-0.1844,-0.1844,-0.1844,-0.1845,-0.1845,-0.1845,-0.159,-0.1592,-0.1656,-0.1694,-0.1754,-0.1798,-0.184,-0.1859,-0.1871,-0.1867,-0.1864,-0.1738,-0.1848,-0.1847,-0.1847,-0.1847,-0.1846,-0.1846,-0.1846,-0.1545,-0.155,-0.1605,-0.1675,-0.1748,-0.1814,-0.184,-0.1886,-0.1896,-0.1908,-0.1752,-0.1879,-0.1889,-0.1909,-0.1909,-0.1909,-0.1909,-0.1909,-0.1909,-0.1465,-0.1519,-0.1559,-0.1651,-0.1699,-0.1767,-0.1847,-0.1844,-0.188,-0.1759,-0.1918,-0.1885,-0.1883,-0.1891,-0.191,-0.191,-0.1909,-0.1909,-0.1909,-0.1369,-0.1428,-0.1462,-0.1515,-0.1611,-0.1641,-0.1762,-0.1707,-0.1687,-0.1616,-0.1667,-0.1679,-0.164,-0.1644,-0.1643,-0.1589,-0.1586,-0.1583,0,-0.1299,-0.1333,-0.1366,-0.1404,-0.1431,-0.1541,-0.146,-0.1489,-0.1503,-0.1451,-0.169,-0.175,-0.1756,-0.1718,-0.1716,-0.1715,0,0,0,-0.1233,-0.1259,-0.1243,-0.1311,-0.1329,-0.1331,-0.1423,-0.1359,-0.1518,-0.1424,-0.1514,-0.1532,-0.1783,-0.1912,-0.1882,-0.1879,-0.189,0,0]},{"header":{"parameterUnit":"m.s-1","parameterCategory":2,"la1":30.2992,"la2":30.254,"lo1":-89.0895,"lo2":-89.0443,"dy":0.0025,"dx":0.0025,"nx":19,"ny":19,"refTime":"2026-05-07T21:00:00:Z","depth":"4","parameterNumber":3,"parameterNumberName":"V-component_of_CURRENTS"},"data":[0,0,0,-0.0473,-0.0473,-0.0464,-0.0464,-0.038,-0.0379,0,0,0,0,0,0,0,0,0,0,0,-0.0474,-0.0474,-0.0473,-0.0473,-0.0464,-0.0464,-0.038,-0.0379,0,0,0,0,0,0,0,0,0,0,0,-0.0473,-0.0474,-0.0474,-0.0473,-0.0464,-0.0464,-0.038,-0.0402,0,0,0,0,0,0,0,0,0,0,-0.0418,-0.0438,-0.0474,-0.0474,-0.0473,-0.0464,-0.0464,-0.0403,-0.04,-0.0367,0,-0.0375,0,-0.038,-0.0373,-0.0373,0,0,0,-0.046,-0.0441,-0.0437,-0.0474,-0.0473,-0.0464,-0.0464,-0.0402,-0.0399,-0.0363,-0.0374,-0.0372,-0.0378,-0.0372,-0.0372,-0.0276,-0.0275,0,0,-0.0461,-0.0468,-0.044,-0.0435,-0.0481,-0.0465,-0.0464,-0.0401,-0.04,-0.0374,-0.037,-0.0377,-0.0372,-0.0371,-0.0276,-0.0275,0,0,0,-0.0471,-0.0468,-0.0468,-0.0438,-0.0445,-0.0465,-0.0464,-0.0403,-0.0403,-0.0369,-0.0376,-0.0371,-0.037,-0.0276,-0.0276,-0.0315,0,0,0,-0.047,-0.0475,-0.0468,-0.0471,-0.0447,-0.0435,-0.0468,-0.0407,-0.0401,-0.0376,-0.0371,-0.0369,-0.0277,-0.0276,-0.0315,-0.0332,0,0,0,-0.0472,-0.0475,-0.0477,-0.0472,-0.0474,-0.0437,-0.0433,-0.0406,-0.0405,-0.0372,-0.0369,-0.0277,-0.0276,-0.0315,-0.0331,-0.03,0,0,0,-0.0474,-0.0495,-0.0478,-0.05,-0.0475,-0.0471,-0.0434,-0.0426,-0.0405,-0.0371,-0.0277,-0.0276,-0.0315,-0.0331,-0.03,-0.0319,0,0,0,-0.0503,-0.0498,-0.0511,-0.0496,-0.0507,-0.047,-0.0453,-0.0413,-0.0372,-0.0291,-0.0289,-0.0315,-0.0331,-0.03,-0.0266,0,0,0,0,-0.0522,-0.053,-0.0531,-0.0532,-0.0518,-0.0485,-0.0446,-0.0407,-0.0342,-0.0357,-0.0286,-0.0294,-0.0273,-0.0283,-0.0272,-0.0272,-0.0272,-0.0272,-0.0272,-0.0559,-0.0553,-0.0567,-0.0552,-0.0539,-0.0487,-0.0446,-0.0375,-0.0348,-0.0317,-0.0305,-0.028,-0.029,-0.0279,-0.028,-0.028,-0.028,-0.028,-0.028,-0.0593,-0.06,-0.0581,-0.0596,-0.0554,-0.053,-0.0431,-0.0396,-0.0308,-0.0299,-0.0276,-0.0299,-0.0283,-0.0283,-0.0282,-0.0282,-0.0282,-0.0281,-0.0281,-0.061,-0.0612,-0.0625,-0.0633,-0.0611,-0.056,-0.0504,-0.0429,-0.0342,-0.0318,-0.0297,-0.0286,-0.0305,-0.0304,-0.0304,-0.0304,-0.0303,-0.0303,-0.0303,-0.0624,-0.0632,-0.0665,-0.0669,-0.0679,-0.0651,-0.0552,-0.0484,-0.039,-0.0329,-0.0325,-0.0286,-0.0286,-0.0304,-0.0302,-0.0303,-0.0303,-0.0303,-0.0303,-0.0642,-0.0661,-0.0708,-0.0733,-0.0746,-0.0713,-0.0636,-0.0485,-0.0409,-0.0328,-0.0313,-0.0313,-0.0292,-0.0291,-0.0309,-0.0309,-0.0309,-0.0309,0,-0.0659,-0.0669,-0.0745,-0.0786,-0.0791,-0.0743,-0.064,-0.0542,-0.041,-0.0413,-0.0411,-0.0402,-0.0399,-0.0384,-0.0382,-0.0408,0,0,0,-0.0672,-0.0698,-0.0752,-0.0802,-0.081,-0.0685,-0.0606,-0.055,-0.0441,-0.0352,-0.0315,-0.0313,-0.0347,-0.03,-0.0265,-0.0264,-0.0291,0,0]}]]